ONEWEB-0039 (45146 NORAD) Tracking and Keplerian Element Data

This shows tracking and keplerian element data for the satellite.

Feedback or suggestion? Click here.




ElementValue
Catalog45146
NameONEWEB-0039
Epoch Orbit933
Epoch Day94.11153968
Epoch Year2020
RAAN145.4833
Inclination87.5457
Eccentricity0.0021887
Argument of Perigee97.1833
Mean Anonmoly263.1881
Mean Motion14.83896198
Decay Rate-0.00332219
L11 45146U 20008R 20094.11153968 -.00332219 00000-0 -41827-1 0 9994
L22 45146 87.5457 145.4833 0021887 97.1833 263.1881 14.83896198 9334

Live tracking and technical data element details for ONEWEB-0039 (NORAD 45146). ONEWEB-0039 can be tracked NOW for your location showing map with azimuth and elevation plus other details from your city location.

Track the satellite on the map from your city or location and see movement details for azimuth, elevation, latitude, longitude, range, height, and movement on the map or in text.







IsCatalogInMostPopularTable: catalog: 45146, numindb: 10
Update: records affected: 1



GetName: 45146 ONEWEB-0039

Hit Count: updated at: Mon, 06 Apr 2020 10:41:47 GMT